{"data":{"norad_id":58793,"intl_designator":"2024-012G","name":"STARLINK-31184","alt_names":[],"object_type":"PAYLOAD","status":"ACTIVE","operator":null,"country":"US","launch_date":"2024-01-15","launch_site_code":"AFETR","launch_vehicle":null,"mission":null,"orbit_class":"UNKNOWN","rcs_meters":null,"size_class":null,"mass_kg":null,"dimensions":null,"purposes":["comms"],"wikipedia_slug":null,"has_3d_model":false,"image_url":null,"decayed_at":null,"tle_current":{"epoch":"2026-09-20T09:03:55.380384Z","epoch_age_seconds":163216,"freshness":"FRESH","line1":"1 58793U 24012G   26263.37772431  .00000053  00000+0  11434-4 0  9998","line2":"2 58793  43.0016 145.5261 0000887 271.6730  88.4020 15.27576698151017","mean_motion":15.27576698,"eccentricity":8.87e-5,"inclination_deg":43.0016,"raan_deg":145.5261,"arg_perigee_deg":271.673,"mean_anomaly_deg":88.402,"bstar":1.1434e-5,"rev_number":15101,"period_min":94.266952480052,"perigee_km":482.45039534962,"apogee_km":483.66757151708,"semimajor_km":6861.1959834334,"source":"CELESTRAK","updated_at":"2026-09-21T09:00:33.979756Z"}}}